Year,Month,Day,Hour,Minute,Value (Times are PST for temperature in C)
2006,09,25,00,00,10.10
2006,09,25,00,01,10.10
2006,09,25,00,02,10.10
2006,09,25,00,03,10.10
2006,09,25,00,04,10.10
2006,09,25,00,05,10.10
2006,09,25,00,06,10.10
2006,09,25,00,07,10.00
2006,09,25,00,08,9.90
2006,09,25,00,09,9.90
2006,09,25,00,10,9.90
2006,09,25,00,11,9.90
2006,09,25,00,12,9.90
2006,09,25,00,13,9.90
2006,09,25,00,14,9.90
2006,09,25,00,15,9.90
2006,09,25,00,16,9.90
2006,09,25,00,17,9.90
2006,09,25,00,18,9.90
2006,09,25,00,19,9.90
2006,09,25,00,20,9.90
2006,09,25,00,21,9.90
2006,09,25,00,22,9.90
2006,09,25,00,23,9.90
2006,09,25,00,24,9.90
2006,09,25,00,25,9.90
2006,09,25,00,26,9.90
2006,09,25,00,27,9.80
2006,09,25,00,28,9.80
2006,09,25,00,29,9.80
2006,09,25,00,30,9.80
2006,09,25,00,31,9.80
2006,09,25,00,32,9.80
2006,09,25,00,33,9.80
2006,09,25,00,34,9.70
2006,09,25,00,35,9.70
2006,09,25,00,36,9.70
2006,09,25,00,37,9.70
2006,09,25,00,38,9.70
2006,09,25,00,39,9.70
2006,09,25,00,40,9.70
2006,09,25,00,41,9.70
2006,09,25,00,42,9.70
2006,09,25,00,43,9.70
2006,09,25,00,44,9.70
2006,09,25,00,45,9.70
2006,09,25,00,46,9.70
2006,09,25,00,47,9.70
2006,09,25,00,48,9.70
2006,09,25,00,49,9.70
2006,09,25,00,50,9.60
2006,09,25,00,51,9.60
2006,09,25,00,52,9.60
2006,09,25,00,53,9.60
2006,09,25,00,54,9.60
2006,09,25,00,55,9.60
2006,09,25,00,56,9.60
2006,09,25,00,57,9.60
2006,09,25,00,58,9.60
2006,09,25,00,59,9.60
2006,09,25,01,00,9.50
2006,09,25,01,01,9.50
2006,09,25,01,02,9.50
2006,09,25,01,03,9.50
2006,09,25,01,04,9.50
2006,09,25,01,05,9.40
2006,09,25,01,06,9.40
2006,09,25,01,07,9.40
2006,09,25,01,08,9.40
2006,09,25,01,09,9.30
2006,09,25,01,10,9.30
2006,09,25,01,11,9.30
2006,09,25,01,12,9.30
2006,09,25,01,13,9.30
2006,09,25,01,14,9.30
2006,09,25,01,15,9.30
2006,09,25,01,16,9.30
2006,09,25,01,17,9.30
2006,09,25,01,18,9.30
2006,09,25,01,19,9.30
2006,09,25,01,20,9.30
2006,09,25,01,21,9.30
2006,09,25,01,22,9.30
2006,09,25,01,23,9.30
2006,09,25,01,24,9.30
2006,09,25,01,25,9.20
2006,09,25,01,26,9.20
2006,09,25,01,27,9.20
2006,09,25,01,28,9.20
2006,09,25,01,29,9.20
2006,09,25,01,30,9.20
2006,09,25,01,31,9.20
2006,09,25,01,32,9.20
2006,09,25,01,33,9.10
2006,09,25,01,34,9.10
2006,09,25,01,35,9.10
2006,09,25,01,36,9.10
2006,09,25,01,37,9.00
2006,09,25,01,38,9.00
2006,09,25,01,39,9.00
2006,09,25,01,40,9.00
2006,09,25,01,41,9.00
2006,09,25,01,42,9.00
2006,09,25,01,43,9.00
2006,09,25,01,44,8.90
2006,09,25,01,45,8.90
2006,09,25,01,46,8.90
2006,09,25,01,47,8.90
2006,09,25,01,48,8.90
2006,09,25,01,49,8.90
2006,09,25,01,50,8.90
2006,09,25,01,51,8.90
2006,09,25,01,52,8.90
2006,09,25,01,53,8.90
2006,09,25,01,54,8.90
2006,09,25,01,55,8.90
2006,09,25,01,56,8.90
2006,09,25,01,57,8.90
2006,09,25,01,58,8.80
2006,09,25,01,59,8.80
2006,09,25,02,00,8.80
2006,09,25,02,01,8.80
2006,09,25,02,02,8.80
2006,09,25,02,03,8.80
2006,09,25,02,04,8.70
2006,09,25,02,05,8.70
2006,09,25,02,06,8.70
2006,09,25,02,07,8.70
2006,09,25,02,08,8.70
2006,09,25,02,09,8.70
2006,09,25,02,10,8.70
2006,09,25,02,11,8.70
2006,09,25,02,12,8.70
2006,09,25,02,13,8.70
2006,09,25,02,14,8.70
2006,09,25,02,15,8.70
2006,09,25,02,16,8.70
2006,09,25,02,17,8.70
2006,09,25,02,18,8.70
2006,09,25,02,19,8.70
2006,09,25,02,20,8.60
2006,09,25,02,21,8.60
2006,09,25,02,22,8.60
2006,09,25,02,23,8.60
2006,09,25,02,24,8.60
2006,09,25,02,25,8.60
2006,09,25,02,26,8.60
2006,09,25,02,27,8.60
2006,09,25,02,28,8.60
2006,09,25,02,29,8.60
2006,09,25,02,30,8.60
2006,09,25,02,31,8.60
2006,09,25,02,32,8.60
2006,09,25,02,33,8.50
2006,09,25,02,34,8.50
2006,09,25,02,35,8.50
2006,09,25,02,36,8.50
2006,09,25,02,37,8.50
2006,09,25,02,38,8.50
2006,09,25,02,39,8.50
2006,09,25,02,40,8.50
2006,09,25,02,41,8.50
2006,09,25,02,42,8.50
2006,09,25,02,43,8.50
2006,09,25,02,44,8.50
2006,09,25,02,45,8.50
2006,09,25,02,46,8.50
2006,09,25,02,47,8.50
2006,09,25,02,48,8.50
2006,09,25,02,49,8.50
2006,09,25,02,50,8.50
2006,09,25,02,51,8.50
2006,09,25,02,52,8.50
2006,09,25,02,53,8.50
2006,09,25,02,54,8.50
2006,09,25,02,55,8.50
2006,09,25,02,56,8.60
2006,09,25,02,57,8.60
2006,09,25,02,58,8.70
2006,09,25,02,59,8.70
2006,09,25,03,00,8.70
2006,09,25,03,01,8.80
2006,09,25,03,02,8.80
2006,09,25,03,03,8.80
2006,09,25,03,04,8.80
2006,09,25,03,05,8.80
2006,09,25,03,06,8.80
2006,09,25,03,07,8.80
2006,09,25,03,08,8.80
2006,09,25,03,09,8.80
2006,09,25,03,10,8.70
2006,09,25,03,11,8.70
2006,09,25,03,12,8.80
2006,09,25,03,13,8.80
2006,09,25,03,14,8.80
2006,09,25,03,15,8.80
2006,09,25,03,16,8.80
2006,09,25,03,17,8.80
2006,09,25,03,18,8.90
2006,09,25,03,19,8.90
2006,09,25,03,20,9.00
2006,09,25,03,21,9.10
2006,09,25,03,22,9.10
2006,09,25,03,23,9.10
2006,09,25,03,24,9.20
2006,09,25,03,25,9.20
2006,09,25,03,26,9.20
2006,09,25,03,27,9.20
2006,09,25,03,28,9.20
2006,09,25,03,29,9.40
2006,09,25,03,30,9.40
2006,09,25,03,31,9.40
2006,09,25,03,32,9.50
2006,09,25,03,33,9.50
2006,09,25,03,34,9.60
2006,09,25,03,35,9.70
2006,09,25,03,36,9.70
2006,09,25,03,37,9.80
2006,09,25,03,38,9.80
2006,09,25,03,39,9.90
2006,09,25,03,40,9.90
2006,09,25,03,41,9.90
2006,09,25,03,42,9.90
2006,09,25,03,43,9.90
2006,09,25,03,44,9.90
2006,09,25,03,45,9.90
2006,09,25,03,46,9.90
2006,09,25,03,47,9.90
2006,09,25,03,48,9.90
2006,09,25,03,49,9.90
2006,09,25,03,50,9.90
2006,09,25,03,51,9.90
2006,09,25,03,52,9.90
2006,09,25,03,53,9.90
2006,09,25,03,54,9.90
2006,09,25,03,55,9.90
2006,09,25,03,56,9.80
2006,09,25,03,57,9.80
2006,09,25,03,58,9.80
2006,09,25,03,59,9.80
2006,09,25,04,00,9.80
2006,09,25,04,01,9.90
2006,09,25,04,02,10.00
2006,09,25,04,03,10.10
2006,09,25,04,04,10.10
2006,09,25,04,05,10.10
2006,09,25,04,06,10.10
2006,09,25,04,07,10.10
2006,09,25,04,08,10.10
2006,09,25,04,09,10.10
2006,09,25,04,10,10.10
2006,09,25,04,11,10.10
2006,09,25,04,12,10.10
2006,09,25,04,13,10.10
2006,09,25,04,14,10.10
2006,09,25,04,15,10.10
2006,09,25,04,16,10.10
2006,09,25,04,17,10.10
2006,09,25,04,18,10.10
2006,09,25,04,19,10.10
2006,09,25,04,20,10.20
2006,09,25,04,21,10.20
2006,09,25,04,22,10.20
2006,09,25,04,23,10.30
2006,09,25,04,24,10.30
2006,09,25,04,25,10.30
2006,09,25,04,26,10.40
2006,09,25,04,27,10.30
2006,09,25,04,28,10.30
2006,09,25,04,29,10.30
2006,09,25,04,30,10.30
2006,09,25,04,31,10.30
2006,09,25,04,32,10.20
2006,09,25,04,33,10.20
2006,09,25,04,34,10.20
2006,09,25,04,35,10.20
2006,09,25,04,36,10.10
2006,09,25,04,37,10.10
2006,09,25,04,38,10.10
2006,09,25,04,39,10.10
2006,09,25,04,40,10.00
2006,09,25,04,41,9.90
2006,09,25,04,42,9.90
2006,09,25,04,43,9.90
2006,09,25,04,44,9.90
2006,09,25,04,45,9.90
2006,09,25,04,46,9.90
2006,09,25,04,47,9.80
2006,09,25,04,48,9.80
2006,09,25,04,49,9.80
2006,09,25,04,50,9.70
2006,09,25,04,51,9.70
2006,09,25,04,52,9.70
2006,09,25,04,53,9.70
2006,09,25,04,54,9.70
2006,09,25,04,55,9.70
2006,09,25,04,56,9.70
2006,09,25,04,57,9.70
2006,09,25,04,58,9.70
2006,09,25,04,59,9.70
2006,09,25,05,00,9.70
2006,09,25,05,01,9.60
2006,09,25,05,02,9.60
2006,09,25,05,03,9.60
2006,09,25,05,04,9.60
2006,09,25,05,05,9.60
2006,09,25,05,06,9.50
2006,09,25,05,07,9.50
2006,09,25,05,08,9.50
2006,09,25,05,09,9.50
2006,09,25,05,10,9.50
2006,09,25,05,11,9.40
2006,09,25,05,12,9.40
2006,09,25,05,13,9.40
2006,09,25,05,14,9.40
2006,09,25,05,15,9.40
2006,09,25,05,16,9.40
2006,09,25,05,17,9.40
2006,09,25,05,18,9.40
2006,09,25,05,19,9.40
2006,09,25,05,20,9.40
2006,09,25,05,21,9.30
2006,09,25,05,22,9.30
2006,09,25,05,23,9.30
2006,09,25,05,24,9.30
2006,09,25,05,25,9.30
2006,09,25,05,26,9.20
2006,09,25,05,27,9.20
2006,09,25,05,28,9.20
2006,09,25,05,29,9.20
2006,09,25,05,30,9.20
2006,09,25,05,31,9.20
2006,09,25,05,32,9.20
2006,09,25,05,33,9.20
2006,09,25,05,34,9.20
2006,09,25,05,35,9.20
2006,09,25,05,36,9.20
2006,09,25,05,37,9.20
2006,09,25,05,38,9.20
2006,09,25,05,39,9.20
2006,09,25,05,40,9.20
2006,09,25,05,41,9.20
2006,09,25,05,42,9.20
2006,09,25,05,43,9.10
2006,09,25,05,44,9.10
2006,09,25,05,45,9.00
2006,09,25,05,46,9.00
2006,09,25,05,47,9.00
2006,09,25,05,48,9.00
2006,09,25,05,49,9.00
2006,09,25,05,50,9.10
2006,09,25,05,51,9.10
2006,09,25,05,52,9.20
2006,09,25,05,53,9.20
2006,09,25,05,54,9.20
2006,09,25,05,55,9.20
2006,09,25,05,56,9.20
2006,09,25,05,57,9.20
2006,09,25,05,58,9.20
2006,09,25,05,59,9.20
2006,09,25,06,00,9.20
2006,09,25,06,01,9.20
2006,09,25,06,02,9.30
2006,09,25,06,03,9.30
2006,09,25,06,04,9.40
2006,09,25,06,05,9.40
2006,09,25,06,06,9.40
2006,09,25,06,07,9.30
2006,09,25,06,08,9.30
2006,09,25,06,09,9.30
2006,09,25,06,10,9.30
2006,09,25,06,11,9.20
2006,09,25,06,12,9.20
2006,09,25,06,13,9.20
2006,09,25,06,14,9.20
2006,09,25,06,15,9.10
2006,09,25,06,16,9.10
2006,09,25,06,17,9.00
2006,09,25,06,18,9.00
2006,09,25,06,19,9.00
2006,09,25,06,20,9.00
2006,09,25,06,21,9.00
2006,09,25,06,22,9.00
2006,09,25,06,23,9.00
2006,09,25,06,24,9.00
2006,09,25,06,25,9.00
2006,09,25,06,26,9.00
2006,09,25,06,27,9.00
2006,09,25,06,28,9.00
2006,09,25,06,29,8.90
2006,09,25,06,30,8.90
2006,09,25,06,31,8.90
2006,09,25,06,32,8.90
2006,09,25,06,33,8.80
2006,09,25,06,34,8.80
2006,09,25,06,35,8.80
2006,09,25,06,36,8.80
2006,09,25,06,37,8.70
2006,09,25,06,38,8.70
2006,09,25,06,39,8.70
2006,09,25,06,40,8.70
2006,09,25,06,41,8.70
2006,09,25,06,42,8.70
2006,09,25,06,43,8.70
2006,09,25,06,44,8.60
2006,09,25,06,45,8.60
2006,09,25,06,46,8.60
2006,09,25,06,47,8.60
2006,09,25,06,48,8.60
2006,09,25,06,49,8.50
2006,09,25,06,50,8.50
2006,09,25,06,51,8.50
2006,09,25,06,52,8.50
2006,09,25,06,53,8.50
2006,09,25,06,54,8.40
2006,09,25,06,55,8.40
2006,09,25,06,56,8.40
2006,09,25,06,57,8.30
2006,09,25,06,58,8.30
2006,09,25,06,59,8.30
2006,09,25,07,00,8.30
2006,09,25,07,01,8.30
2006,09,25,07,02,8.30
2006,09,25,07,03,8.30
2006,09,25,07,04,8.30
2006,09,25,07,05,8.30
2006,09,25,07,06,8.30
2006,09,25,07,07,8.30
2006,09,25,07,08,8.30
2006,09,25,07,09,8.30
2006,09,25,07,10,8.20
2006,09,25,07,11,8.20
2006,09,25,07,12,8.20
2006,09,25,07,13,8.20
2006,09,25,07,14,8.20
2006,09,25,07,15,8.20
2006,09,25,07,16,8.20
2006,09,25,07,17,8.20
2006,09,25,07,18,8.20
2006,09,25,07,19,8.20
2006,09,25,07,20,8.20
2006,09,25,07,21,8.20
2006,09,25,07,22,8.20
2006,09,25,07,23,8.20
2006,09,25,07,24,8.20
2006,09,25,07,25,8.20
2006,09,25,07,26,8.10
2006,09,25,07,27,8.10
2006,09,25,07,28,8.10
2006,09,25,07,29,8.10
2006,09,25,07,30,8.10
2006,09,25,07,31,8.10
2006,09,25,07,32,8.10
2006,09,25,07,33,8.10
2006,09,25,07,34,8.10
2006,09,25,07,35,8.10
2006,09,25,07,36,8.10
2006,09,25,07,37,8.20
2006,09,25,07,38,8.20
2006,09,25,07,39,8.20
2006,09,25,07,40,8.20
2006,09,25,07,41,8.30
2006,09,25,07,42,8.30
2006,09,25,07,43,8.40
2006,09,25,07,44,8.40
2006,09,25,07,45,8.40
2006,09,25,07,46,8.40
2006,09,25,07,47,8.40
2006,09,25,07,48,8.50
2006,09,25,07,49,8.50
2006,09,25,07,50,8.50
2006,09,25,07,51,8.50
2006,09,25,07,52,8.50
2006,09,25,07,53,8.40
2006,09,25,07,54,8.40
2006,09,25,07,55,8.40
2006,09,25,07,56,8.40
2006,09,25,07,57,8.40
2006,09,25,07,58,8.40
2006,09,25,07,59,8.50
2006,09,25,08,00,8.50
2006,09,25,08,01,8.50
2006,09,25,08,02,8.40
2006,09,25,08,03,8.40
2006,09,25,08,04,8.40
2006,09,25,08,05,8.40
2006,09,25,08,06,8.50
2006,09,25,08,07,8.50
2006,09,25,08,08,8.60
2006,09,25,08,09,8.70
2006,09,25,08,10,8.70
2006,09,25,08,11,8.70
2006,09,25,08,12,8.70
2006,09,25,08,13,8.80
2006,09,25,08,14,8.80
2006,09,25,08,15,8.80
2006,09,25,08,16,8.90
2006,09,25,08,17,8.90
2006,09,25,08,18,9.00
2006,09,25,08,19,9.00
2006,09,25,08,20,9.10
2006,09,25,08,21,9.20
2006,09,25,08,22,9.20
2006,09,25,08,23,9.30
2006,09,25,08,24,9.40
2006,09,25,08,25,9.60
2006,09,25,08,26,9.70
2006,09,25,08,27,9.90
2006,09,25,08,28,10.00
2006,09,25,08,29,10.20
2006,09,25,08,30,10.30
2006,09,25,08,31,10.40
2006,09,25,08,32,10.50
2006,09,25,08,33,10.60
2006,09,25,08,34,10.70
2006,09,25,08,35,10.80
2006,09,25,08,36,10.90
2006,09,25,08,37,11.00
2006,09,25,08,38,11.10
2006,09,25,08,39,11.10
2006,09,25,08,40,11.20
2006,09,25,08,41,11.30
2006,09,25,08,42,11.30
2006,09,25,08,43,11.40
2006,09,25,08,44,11.40
2006,09,25,08,45,11.50
2006,09,25,08,46,11.60
2006,09,25,08,47,11.60
2006,09,25,08,48,11.70
2006,09,25,08,49,11.80
2006,09,25,08,50,11.90
2006,09,25,08,51,11.90
2006,09,25,08,52,11.90
2006,09,25,08,53,11.90
2006,09,25,08,54,12.00
2006,09,25,08,55,12.00
2006,09,25,08,56,12.10
2006,09,25,08,57,12.20
2006,09,25,08,58,12.30
2006,09,25,08,59,12.40
2006,09,25,09,00,12.50
2006,09,25,09,01,12.50
2006,09,25,09,02,12.60
2006,09,25,09,03,12.60
2006,09,25,09,04,12.80
2006,09,25,09,05,12.90
2006,09,25,09,06,13.00
2006,09,25,09,07,13.10
2006,09,25,09,08,13.30
2006,09,25,09,09,13.30
2006,09,25,09,10,13.50
2006,09,25,09,11,13.50
2006,09,25,09,12,13.70
2006,09,25,09,13,13.80
2006,09,25,09,14,13.90
2006,09,25,09,15,14.00
2006,09,25,09,16,14.10
2006,09,25,09,17,14.30
2006,09,25,09,18,14.40
2006,09,25,09,19,14.50
2006,09,25,09,20,14.70
2006,09,25,09,21,14.80
2006,09,25,09,22,14.90
2006,09,25,09,23,15.00
2006,09,25,09,24,15.10
2006,09,25,09,25,15.20
2006,09,25,09,26,15.30
2006,09,25,09,27,15.40
2006,09,25,09,28,15.50
2006,09,25,09,29,15.50
2006,09,25,09,30,15.60
2006,09,25,09,31,15.70
2006,09,25,09,32,15.80
2006,09,25,09,33,16.00
2006,09,25,09,34,16.20
2006,09,25,09,35,16.30
2006,09,25,09,36,16.40
2006,09,25,09,37,16.40
2006,09,25,09,38,16.60
2006,09,25,09,39,16.60
2006,09,25,09,40,16.70
2006,09,25,09,41,16.70
2006,09,25,09,42,16.90
2006,09,25,09,43,17.00
2006,09,25,09,44,17.00
2006,09,25,09,45,17.20
2006,09,25,09,46,17.30
2006,09,25,09,47,17.30
2006,09,25,09,48,17.40
2006,09,25,09,49,17.50
2006,09,25,09,50,17.60
2006,09,25,09,51,17.70
2006,09,25,09,52,17.70
2006,09,25,09,53,17.80
2006,09,25,09,54,17.90
2006,09,25,09,55,17.90
2006,09,25,09,56,18.00
2006,09,25,09,57,18.10
2006,09,25,09,58,18.20
2006,09,25,09,59,18.20
2006,09,25,10,00,18.20
2006,09,25,10,01,18.30
2006,09,25,10,02,18.30
2006,09,25,10,03,18.40
2006,09,25,10,04,18.40
2006,09,25,10,05,18.50
2006,09,25,10,06,18.50
2006,09,25,10,07,18.60
2006,09,25,10,08,18.60
2006,09,25,10,09,18.70
2006,09,25,10,10,18.70
2006,09,25,10,11,18.80
2006,09,25,10,12,18.90
2006,09,25,10,13,18.90
2006,09,25,10,14,19.00
2006,09,25,10,15,19.10
2006,09,25,10,16,19.10
2006,09,25,10,17,19.10
2006,09,25,10,18,19.10
2006,09,25,10,19,19.10
2006,09,25,10,20,19.10
2006,09,25,10,21,19.10
2006,09,25,10,22,19.10
2006,09,25,10,23,19.10
2006,09,25,10,24,19.10
2006,09,25,10,25,19.10
2006,09,25,10,26,19.10
2006,09,25,10,27,19.10
2006,09,25,10,28,19.10
2006,09,25,10,29,19.10
2006,09,25,10,30,19.10
2006,09,25,10,31,19.10
2006,09,25,10,32,19.20
2006,09,25,10,33,19.20
2006,09,25,10,34,19.30
2006,09,25,10,35,19.30
2006,09,25,10,36,19.40
2006,09,25,10,37,19.50
2006,09,25,10,38,19.50
2006,09,25,10,39,19.60
2006,09,25,10,40,19.60
2006,09,25,10,41,19.70
2006,09,25,10,42,19.70
2006,09,25,10,43,19.80
2006,09,25,10,44,19.90
2006,09,25,10,45,19.90
2006,09,25,10,46,19.90
2006,09,25,10,47,19.90
2006,09,25,10,48,19.90
2006,09,25,10,49,19.90
2006,09,25,10,50,20.00
2006,09,25,10,51,20.10
2006,09,25,10,52,20.10
2006,09,25,10,53,20.20
2006,09,25,10,54,20.30
2006,09,25,10,55,20.40
2006,09,25,10,56,20.50
2006,09,25,10,57,20.50
2006,09,25,10,58,20.60
2006,09,25,10,59,20.70
2006,09,25,11,00,20.70
2006,09,25,11,01,20.80
2006,09,25,11,02,20.80
2006,09,25,11,03,20.90
2006,09,25,11,04,21.00
2006,09,25,11,05,21.00
2006,09,25,11,06,21.00
2006,09,25,11,07,21.00
2006,09,25,11,08,20.90
2006,09,25,11,09,20.90
2006,09,25,11,10,21.00
2006,09,25,11,11,20.90
2006,09,25,11,12,20.80
2006,09,25,11,13,20.80
2006,09,25,11,14,20.70
2006,09,25,11,15,20.50
2006,09,25,11,16,20.40
2006,09,25,11,17,20.30
2006,09,25,11,18,20.30
2006,09,25,11,19,20.30
2006,09,25,11,20,20.20
2006,09,25,11,21,20.20
2006,09,25,11,22,20.20
2006,09,25,11,23,20.20
2006,09,25,11,24,20.10
2006,09,25,11,25,20.10
2006,09,25,11,26,20.10
2006,09,25,11,27,20.10
2006,09,25,11,28,20.10
2006,09,25,11,29,20.10
2006,09,25,11,30,20.10
2006,09,25,11,31,20.20
2006,09,25,11,32,20.20
2006,09,25,11,33,20.40
2006,09,25,11,34,20.50
2006,09,25,11,35,20.50
2006,09,25,11,36,20.50
2006,09,25,11,37,20.50
2006,09,25,11,38,20.40
2006,09,25,11,39,20.40
2006,09,25,11,40,20.40
2006,09,25,11,41,20.50
2006,09,25,11,42,20.50
2006,09,25,11,43,20.40
2006,09,25,11,44,20.40
2006,09,25,11,45,20.40
2006,09,25,11,46,20.40
2006,09,25,11,47,20.40
2006,09,25,11,48,20.30
2006,09,25,11,49,20.40
2006,09,25,11,50,20.40
2006,09,25,11,51,20.40
2006,09,25,11,52,20.40
2006,09,25,11,53,20.40
2006,09,25,11,54,20.50
2006,09,25,11,55,20.50
2006,09,25,11,56,20.50
2006,09,25,11,57,20.60
2006,09,25,11,58,20.60
2006,09,25,11,59,20.60
2006,09,25,12,00,20.60
2006,09,25,12,01,20.60
2006,09,25,12,02,20.60
2006,09,25,12,03,20.70
2006,09,25,12,04,20.70
2006,09,25,12,05,20.70
2006,09,25,12,06,20.80
2006,09,25,12,07,20.90
2006,09,25,12,08,20.90
2006,09,25,12,09,21.00
2006,09,25,12,10,21.00
2006,09,25,12,11,21.00
2006,09,25,12,12,21.00
2006,09,25,12,13,21.00
2006,09,25,12,14,20.90
2006,09,25,12,15,20.80
2006,09,25,12,16,20.70
2006,09,25,12,17,20.50
2006,09,25,12,18,20.50
2006,09,25,12,19,20.50
2006,09,25,12,20,20.50
2006,09,25,12,21,20.50
2006,09,25,12,22,20.60
2006,09,25,12,23,20.60
2006,09,25,12,24,20.60
2006,09,25,12,25,20.70
2006,09,25,12,26,20.70
2006,09,25,12,27,20.70
2006,09,25,12,28,20.70
2006,09,25,12,29,20.70
2006,09,25,12,30,20.80
2006,09,25,12,31,20.70
2006,09,25,12,32,20.70
2006,09,25,12,33,20.60
2006,09,25,12,34,20.60
2006,09,25,12,35,20.50
2006,09,25,12,36,20.50
2006,09,25,12,37,20.50
2006,09,25,12,38,20.60
2006,09,25,12,39,20.60
2006,09,25,12,40,20.70
2006,09,25,12,41,20.70
2006,09,25,12,42,20.70
2006,09,25,12,43,20.70
2006,09,25,12,44,20.70
2006,09,25,12,45,20.70
2006,09,25,12,46,20.70
2006,09,25,12,47,20.70
2006,09,25,12,48,20.70
2006,09,25,12,49,20.70
2006,09,25,12,50,20.70
2006,09,25,12,51,20.70
2006,09,25,12,52,20.70
2006,09,25,12,53,20.70
2006,09,25,12,54,20.70
2006,09,25,12,55,20.70
2006,09,25,12,56,20.60
2006,09,25,12,57,20.60
2006,09,25,12,58,20.70
2006,09,25,12,59,20.70
2006,09,25,13,00,20.70
2006,09,25,13,01,20.70
2006,09,25,13,02,20.60
2006,09,25,13,03,20.60
2006,09,25,13,04,20.60
2006,09,25,13,05,20.50
2006,09,25,13,06,20.60
2006,09,25,13,07,20.60
2006,09,25,13,08,20.70
2006,09,25,13,09,20.70
2006,09,25,13,10,20.80
2006,09,25,13,11,20.90
2006,09,25,13,12,20.90
2006,09,25,13,13,21.00
2006,09,25,13,14,21.00
2006,09,25,13,15,21.00
2006,09,25,13,16,20.90
2006,09,25,13,17,20.90
2006,09,25,13,18,20.90
2006,09,25,13,19,20.90
2006,09,25,13,20,20.90
2006,09,25,13,21,21.00
2006,09,25,13,22,21.10
2006,09,25,13,23,21.10
2006,09,25,13,24,21.20
2006,09,25,13,25,21.20
2006,09,25,13,26,21.20
2006,09,25,13,27,21.20
2006,09,25,13,28,21.20
2006,09,25,13,29,21.20
2006,09,25,13,30,21.30
2006,09,25,13,31,21.20
2006,09,25,13,32,21.20
2006,09,25,13,33,21.30
2006,09,25,13,34,21.30
2006,09,25,13,35,21.40
2006,09,25,13,36,21.50
2006,09,25,13,37,21.50
2006,09,25,13,38,21.40
2006,09,25,13,39,21.40
2006,09,25,13,40,21.50
2006,09,25,13,41,21.60
2006,09,25,13,42,21.60
2006,09,25,13,43,21.60
2006,09,25,13,44,21.60
2006,09,25,13,45,21.60
2006,09,25,13,46,21.60
2006,09,25,13,47,21.60
2006,09,25,13,48,21.50
2006,09,25,13,49,21.50
2006,09,25,13,50,21.40
2006,09,25,13,51,21.40
2006,09,25,13,52,21.40
2006,09,25,13,53,21.40
2006,09,25,13,54,21.40
2006,09,25,13,55,21.30
2006,09,25,13,56,21.30
2006,09,25,13,57,21.30
2006,09,25,13,58,21.30
2006,09,25,13,59,21.30
2006,09,25,14,00,21.30
2006,09,25,14,01,21.30
2006,09,25,14,02,21.30
2006,09,25,14,03,21.30
2006,09,25,14,04,21.30
2006,09,25,14,05,21.30
2006,09,25,14,06,21.30
2006,09,25,14,07,21.30
2006,09,25,14,08,21.40
2006,09,25,14,09,21.40
2006,09,25,14,10,21.40
2006,09,25,14,11,21.60
2006,09,25,14,12,21.60
2006,09,25,14,13,21.70
2006,09,25,14,14,21.80
2006,09,25,14,15,21.90
2006,09,25,14,16,22.00
2006,09,25,14,17,22.00
2006,09,25,14,18,22.10
2006,09,25,14,19,22.10
2006,09,25,14,20,22.00
2006,09,25,14,21,21.80
2006,09,25,14,22,21.60
2006,09,25,14,23,21.60
2006,09,25,14,24,21.50
2006,09,25,14,25,21.40
2006,09,25,14,26,21.40
2006,09,25,14,27,21.30
2006,09,25,14,28,21.30
2006,09,25,14,29,21.30
2006,09,25,14,30,21.30
2006,09,25,14,31,21.30
2006,09,25,14,32,21.60
2006,09,25,14,33,21.80
2006,09,25,14,34,21.80
2006,09,25,14,35,21.90
2006,09,25,14,36,21.90
2006,09,25,14,37,21.90
2006,09,25,14,38,21.90
2006,09,25,14,39,21.80
2006,09,25,14,40,21.80
2006,09,25,14,41,21.80
2006,09,25,14,42,21.80
2006,09,25,14,43,21.70
2006,09,25,14,44,21.60
2006,09,25,14,45,21.60
2006,09,25,14,46,21.60
2006,09,25,14,47,21.60
2006,09,25,14,48,21.60
2006,09,25,14,49,21.60
2006,09,25,14,50,21.60
2006,09,25,14,51,21.60
2006,09,25,14,52,21.60
2006,09,25,14,53,21.60
2006,09,25,14,54,21.60
2006,09,25,14,55,21.60
2006,09,25,14,56,21.60
2006,09,25,14,57,21.60
2006,09,25,14,58,21.60
2006,09,25,14,59,21.60
2006,09,25,15,00,21.60
2006,09,25,15,01,21.70
2006,09,25,15,02,21.80
2006,09,25,15,03,21.90
2006,09,25,15,04,21.90
2006,09,25,15,05,21.90
2006,09,25,15,06,21.90
2006,09,25,15,07,21.90
2006,09,25,15,08,21.90
2006,09,25,15,09,21.90
2006,09,25,15,10,22.00
2006,09,25,15,11,22.00
2006,09,25,15,12,22.10
2006,09,25,15,13,22.20
2006,09,25,15,14,22.30
2006,09,25,15,15,22.30
2006,09,25,15,16,22.30
2006,09,25,15,17,22.30
2006,09,25,15,18,22.30
2006,09,25,15,19,22.30
2006,09,25,15,20,22.40
2006,09,25,15,21,22.50
2006,09,25,15,22,22.40
2006,09,25,15,23,22.40
2006,09,25,15,24,22.40
2006,09,25,15,25,22.40
2006,09,25,15,26,22.30
2006,09,25,15,27,22.20
2006,09,25,15,28,22.20
2006,09,25,15,29,22.10
2006,09,25,15,30,22.10
2006,09,25,15,31,22.20
2006,09,25,15,32,22.20
2006,09,25,15,33,22.20
2006,09,25,15,34,22.20
2006,09,25,15,35,22.20
2006,09,25,15,36,22.20
2006,09,25,15,37,22.20
2006,09,25,15,38,22.20
2006,09,25,15,39,22.20
2006,09,25,15,40,22.20
2006,09,25,15,41,22.20
2006,09,25,15,42,22.20
2006,09,25,15,43,22.20
2006,09,25,15,44,22.30
2006,09,25,15,45,22.30
2006,09,25,15,46,22.30
2006,09,25,15,47,22.40
2006,09,25,15,48,22.40
2006,09,25,15,49,22.40
2006,09,25,15,50,22.40
2006,09,25,15,51,22.40
2006,09,25,15,52,22.40
2006,09,25,15,53,22.30
2006,09,25,15,54,22.30
2006,09,25,15,55,22.20
2006,09,25,15,56,22.20
2006,09,25,15,57,22.20
2006,09,25,15,58,22.20
2006,09,25,15,59,22.20
2006,09,25,16,00,22.20
2006,09,25,16,01,22.20
2006,09,25,16,02,22.30
2006,09,25,16,03,22.30
2006,09,25,16,04,22.40
2006,09,25,16,05,22.40
2006,09,25,16,06,22.40
2006,09,25,16,07,22.40
2006,09,25,16,08,22.50
2006,09,25,16,09,22.50
2006,09,25,16,10,22.60
2006,09,25,16,11,22.60
2006,09,25,16,12,22.70
2006,09,25,16,13,22.70
2006,09,25,16,14,22.70
2006,09,25,16,15,22.70
2006,09,25,16,16,22.70
2006,09,25,16,17,22.70
2006,09,25,16,18,22.70
2006,09,25,16,19,22.80
2006,09,25,16,20,22.80
2006,09,25,16,21,22.80
2006,09,25,16,22,22.90
2006,09,25,16,23,22.90
2006,09,25,16,24,22.90
2006,09,25,16,25,22.90
2006,09,25,16,26,23.00
2006,09,25,16,27,23.10
2006,09,25,16,28,23.20
2006,09,25,16,29,23.20
2006,09,25,16,30,23.20
2006,09,25,16,31,23.20
2006,09,25,16,32,23.20
2006,09,25,16,33,23.10
2006,09,25,16,34,23.10
2006,09,25,16,35,23.10
2006,09,25,16,36,23.10
2006,09,25,16,37,23.10
2006,09,25,16,38,23.20
2006,09,25,16,39,23.20
2006,09,25,16,40,23.30
2006,09,25,16,41,23.30
2006,09,25,16,42,23.30
2006,09,25,16,43,23.30
2006,09,25,16,44,23.20
2006,09,25,16,45,23.20
2006,09,25,16,46,23.20
2006,09,25,16,47,23.20
2006,09,25,16,48,23.20
2006,09,25,16,49,23.10
2006,09,25,16,50,23.10
2006,09,25,16,51,23.20
2006,09,25,16,52,23.20
2006,09,25,16,53,23.30
2006,09,25,16,54,23.30
2006,09,25,16,55,23.40
2006,09,25,16,56,23.50
2006,09,25,16,57,23.60
2006,09,25,16,58,23.70
2006,09,25,16,59,23.70
2006,09,25,17,00,23.70
2006,09,25,17,01,23.70
2006,09,25,17,02,23.70
2006,09,25,17,03,23.70
2006,09,25,17,04,23.70
2006,09,25,17,05,23.80
2006,09,25,17,06,23.80
2006,09,25,17,07,23.80
2006,09,25,17,08,23.80
2006,09,25,17,09,23.80
2006,09,25,17,10,23.80
2006,09,25,17,11,23.80
2006,09,25,17,12,23.80
2006,09,25,17,13,23.90
2006,09,25,17,14,23.90
2006,09,25,17,15,24.00
2006,09,25,17,16,24.10
2006,09,25,17,17,24.10
2006,09,25,17,18,24.10
2006,09,25,17,19,24.10
2006,09,25,17,20,24.10
2006,09,25,17,21,24.10
2006,09,25,17,22,24.10
2006,09,25,17,23,23.90
2006,09,25,17,24,23.90
2006,09,25,17,25,23.80
2006,09,25,17,26,23.70
2006,09,25,17,27,23.60
2006,09,25,17,28,23.60
2006,09,25,17,29,23.60
2006,09,25,17,30,23.60
2006,09,25,17,31,23.60
2006,09,25,17,32,23.60
2006,09,25,17,33,23.70
2006,09,25,17,34,23.70
2006,09,25,17,35,23.70
2006,09,25,17,36,23.70
2006,09,25,17,37,23.60
2006,09,25,17,38,23.50
2006,09,25,17,39,23.30